Wind_Speed
54 54 55 54 54 54 53 54 55 54 53 52 51 51 51 52 52 52 51 50 50 49 48 47 46 44 43 42 42 43 44 44 45 45 46 47 48 48
52 52 52 51 51 52 52 52 53 53 52 50 50 50 50 51 51 50 48 47 46 45 43 41 40 38 37 37 38 38 39 39 38 38 39 41 42 42
52 51 51 51 50 51 51 52 52 53 52 49 48 48 48 48 46 45 44 42 41 39 38 36 35 35 34 34 34 33 33 32 33 33 34 35 35 36
51 50 51 50 50 51 51 51 51 51 50 48 46 46 45 44 43 41 40 39 37 36 35 33 32 32 31 30 29 28 27 26 26 27 28 28 28 29
50 50 50 50 50 50 50 51 50 49 48 47 45 43 41 40 39 37 37 36 34 32 31 31 30 29 27 26 24 23 23 22 22 22 22 23 23 24
50 50 50 50 50 51 50 50 49 48 46 45 42 39 37 37 36 35 34 33 30 29 28 27 26 25 24 22 22 21 20 19 19 18 18 18 19 19
49 49 49 49 50 50 50 48 47 46 44 42 38 36 36 35 33 32 31 29 27 26 25 24 23 22 22 20 19 18 16 14 14 14 15 14 15 16
48 47 48 48 49 48 47 46 45 44 42 39 36 35 34 33 31 30 28 26 24 24 24 22 21 20 19 17 15 15 14 13 12 12 12 12 13 14
47 46 47 47 47 46 44 43 42 42 39 37 35 33 32 32 31 28 26 23 22 22 21 20 19 17 16 14 13 13 13 12 11 11 11 12 13 14
46 46 46 46 46 44 42 41 40 38 36 36 34 32 31 30 29 26 24 22 21 20 20 18 17 15 13 12 13 13 12 12 11 11 11 12 13 14
45 46 45 44 43 42 40 38 36 35 34 33 32 30 29 28 26 23 22 20 19 18 17 16 14 12 12 12 12 12 12 11 11 11 12 13 13 13
44 44 43 42 41 40 38 35 33 32 32 31 29 28 26 24 22 20 19 18 17 16 14 13 12 11 10 10 10 10 10 10 10 11 12 12 12 11
43 42 41 40 39 37 34 32 30 30 29 28 27 25 23 21 20 18 17 16 16 15 13 12 12 11 10 9 9 9 9 9 9 10 11 11 10 10
41 40 39 37 35 33 31 29 29 29 27 26 25 22 20 19 18 16 15 15 14 13 11 10 10 10 10 9 9 9 9 9 9 9 9 9 9 9
40 39 37 35 33 30 29 28 28 27 26 24 22 20 19 18 17 15 14 14 13 11 10 9 9 9 8 8 7 7 8 8 8 8 8 8 8 8
38 36 34 32 30 29 28 27 27 25 23 22 20 19 18 16 15 13 13 12 11 10 9 8 7 7 6 6 6 5 6 7 7 7 7 7 7 7
35 34 32 30 29 28 28 27 25 23 22 20 18 17 16 15 12 11 11 11 10 9 8 7 6 5 4 4 4 5 6 6 5 5 5 5 6 6
33 31 30 29 28 27 26 25 23 22 21 18 16 15 14 13 11 10 10 9 8 7 7 6 5 5 4 4 5 5 5 5 5 5 5 4 5 5
31 29 27 27 26 25 24 23 21 20 18 16 14 13 13 12 10 9 8 7 6 6 5 5 4 4 4 4 4 4 4 4 4 4 4 4 4 4
29 27 26 25 24 23 22 20 19 17 16 15 13 12 12 11 9 8 8 7 6 5 4 3 3 2 2 2 2 3 3 3 3 4 4 4 3 3
27 26 25 23 22 20 19 18 16 15 14 13 12 11 9 9 9 8 8 7 6 5 4 3 3 2 1 1 1 1 1 2 2 3 4 3 3 4
24 23 22 21 19 17 16 15 14 13 12 11 10 9 8 8 8 8 7 7 6 4 3 3 2 1 0 0 1 2 2 2 2 3 3 3 4 4
20 19 18 16 15 14 13 13 12 11 11 10 9 8 8 8 8 8 7 6 5 4 3 3 2 1 1 1 2 2 2 2 2 3 3 3 4 5
Wind_Direction
294 295 295 296 295 295 296 298 298 299 300 299 296 296 296 296 296 295 296 294 293 292 293 292 291 288 286 283 281 279 275 273 270 268 266 264 264 263
294 295 296 297 297 297 297 298 300 301 301 300 297 297 298 298 296 296 297 296 295 295 295 294 291 289 287 285 284 281 278 273 270 268 266 265 264 263
294 295 296 297 298 298 298 299 300 301 302 300 298 299 299 298 297 298 299 298 297 296 296 294 292 291 288 288 286 283 279 275 271 268 267 266 265 263
293 295 295 296 298 298 298 299 300 301 302 301 299 299 299 298 299 299 300 300 297 296 296 296 295 293 291 290 289 285 281 277 274 271 268 268 267 265
294 295 295 296 297 298 299 300 301 301 302 302 301 300 298 298 300 300 300 299 298 297 298 298 296 295 293 291 289 287 285 279 275 273 270 270 267 266
294 295 295 296 297 298 299 300 300 301 301 302 301 299 298 299 300 300 301 298 297 296 298 298 296 296 295 292 290 289 288 283 279 274 267 268 266 267
294 295 295 296 297 299 299 299 300 301 301 301 299 299 299 298 299 300 299 296 295 296 298 299 297 294 293 293 291 289 285 282 281 275 272 269 268 268
293 294 295 296 297 299 298 299 299 300 301 299 298 298 298 297 298 299 297 295 294 294 295 297 296 294 293 293 289 287 282 280 279 275 270 275 276 275
292 293 295 296 297 297 297 298 298 299 299 298 298 297 296 295 295 296 296 295 293 294 294 294 294 293 293 292 289 285 282 280 277 272 275 281 283 282
292 293 295 296 297 296 296 296 297 297 298 299 299 297 296 296 295 294 291 291 291 292 292 291 292 291 288 290 288 284 283 278 274 273 278 280 285 290
291 293 295 295 295 295 296 295 294 295 297 298 298 297 297 296 295 293 290 287 287 288 289 291 288 287 287 287 286 280 277 279 276 276 279 284 285 285
292 294 294 294 293 293 294 294 293 294 296 297 297 296 297 296 295 292 290 286 284 287 289 287 285 285 283 283 283 282 280 277 277 281 282 286 288 285
292 293 293 292 292 292 292 292 292 293 294 294 294 294 292 292 292 291 287 281 286 290 287 283 283 281 281 282 282 278 279 282 286 286 284 285 287 287
291 291 291 290 290 290 289 290 292 293 293 293 293 291 289 288 287 287 283 282 285 289 288 285 289 284 281 281 279 275 280 284 286 287 286 285 286 289
289 289 289 288 287 287 288 289 291 291 291 291 290 288 288 285 283 283 281 282 281 283 286 290 291 285 281 277 276 281 285 288 284 284 285 285 286 283
288 287 286 285 284 285 286 288 290 289 289 289 287 284 283 281 282 278 274 271 271 275 280 288 288 287 285 281 282 288 292 294 289 290 291 290 287 285
287 285 283 282 283 284 285 286 285 284 285 284 282 280 279 278 276 272 267 259 257 261 270 278 282 278 273 280 286 292 296 296 298 306 309 306 302 298
286 284 281 279 280 281 281 281 281 280 281 278 277 277 275 271 266 265 256 248 251 253 259 265 271 266 266 281 283 289 291 296 306 315 318 322 321 315
283 281 279 278 278 277 276 276 276 275 272 271 272 272 267 261 259 253 239 234 236 240 245 252 258 264 270 287 298 298 304 311 320 331 338 336 331 330
280 279 278 277 276 274 271 270 268 266 264 265 266 263 257 252 250 241 227 221 220 228 238 245 243 245 258 290 305 310 312 320 330 338 344 347 352 0
276 276 275 274 273 270 267 263 258 256 256 256 255 253 247 242 237 226 216 208 207 215 227 232 229 231 243 280 323 352 357 341 344 347 355 14 26 31
273 272 271 269 266 263 259 253 251 250 247 245 243 241 234 226 219 210 203 197 192 196 201 199 201 199 163 99 56 46 32 14 7 13 26 42 46 61
271 268 264 259 255 252 248 246 244 240 235 231 227 223 216 204 198 193 190 188 190 194 194 189 187 164 129 87 93 65 40 37 42 46 51 54 66 86
Height
5659 5654 5649 5644 5638 5633 5628 5623 5618 5615 5614 5607 5600 5593 5587 5581 5575 5570 5565 5559 5554 5550 5545 5541 5537 5533 5530 5528 5526 5524 5523 5523 5524 5525 5527 5529 5531 5534
5647 5642 5637 5632 5627 5621 5617 5611 5605 5601 5598 5594 5587 5581 5575 5569 5563 5558 5552 5547 5543 5538 5534 5530 5526 5523 5520 5517 5515 5513 5512 5511 5512 5513 5515 5517 5519 5520
5635 5630 5626 5621 5616 5611 5605 5600 5595 5589 5584 5581 5575 5570 5564 5558 5553 5547 5542 5537 5533 5529 5525 5521 5518 5515 5511 5509 5506 5504 5502 5501 5502 5503 5504 5506 5508 5510
5623 5619 5614 5609 5605 5599 5594 5589 5584 5578 5572 5569 5565 5559 5553 5548 5543 5538 5534 5529 5525 5521 5517 5514 5510 5507 5504 5501 5498 5496 5495 5494 5494 5495 5497 5498 5500 5501
5611 5607 5602 5598 5594 5588 5583 5578 5573 5567 5561 5557 5553 5548 5544 5538 5534 5530 5526 5521 5518 5514 5510 5507 5504 5501 5498 5495 5493 5491 5490 5489 5489 5490 5491 5492 5493 5494
5599 5595 5591 5586 5582 5577 5572 5567 5562 5557 5551 5547 5543 5539 5535 5530 5526 5523 5519 5515 5511 5508 5505 5502 5499 5496 5493 5491 5489 5487 5486 5486 5486 5486 5487 5488 5488 5489
5587 5583 5579 5575 5570 5565 5560 5555 5551 5546 5542 5537 5534 5530 5527 5523 5519 5515 5512 5509 5506 5503 5500 5497 5494 5492 5489 5487 5485 5483 5483 5483 5483 5483 5484 5484 5485 5485
5576 5572 5568 5563 5558 5554 5549 5544 5540 5536 5532 5529 5526 5522 5519 5515 5512 5508 5506 5503 5501 5499 5496 5493 5490 5488 5485 5484 5482 5481 5480 5480 5480 5481 5481 5482 5482 5482
5564 5561 5557 5552 5547 5543 5539 5535 5531 5526 5523 5520 5517 5514 5512 5509 5506 5503 5500 5498 5496 5493 5491 5489 5487 5484 5482 5481 5480 5479 5479 5478 5479 5479 5480 5480 5480 5480
5553 5549 5546 5541 5537 5533 5529 5526 5522 5518 5515 5511 5509 5506 5503 5501 5498 5496 5494 5492 5491 5488 5486 5485 5483 5482 5480 5479 5478 5477 5477 5477 5477 5478 5478 5478 5478 5477
5542 5538 5535 5531 5527 5523 5520 5517 5514 5511 5507 5504 5501 5498 5496 5494 5491 5490 5488 5487 5486 5485 5482 5481 5480 5479 5478 5477 5476 5475 5475 5475 5475 5475 5475 5475 5475 5474
5532 5528 5524 5520 5516 5513 5510 5508 5506 5503 5500 5497 5494 5492 5490 5488 5486 5485 5483 5482 5481 5480 5479 5478 5477 5476 5476 5475 5474 5474 5473 5473 5473 5473 5473 5472 5472 5472
5522 5519 5515 5511 5507 5505 5502 5500 5498 5496 5493 5491 5489 5487 5485 5483 5482 5480 5479 5478 5477 5476 5476 5475 5474 5473 5473 5473 5473 5472 5471 5471 5471 5471 5470 5470 5470 5469
5512 5508 5505 5502 5499 5497 5495 5493 5491 5489 5487 5485 5484 5482 5481 5479 5477 5476 5475 5475 5474 5474 5473 5472 5471 5471 5471 5471 5470 5470 5470 5469 5469 5469 5469 5468 5468 5467
5501 5498 5496 5493 5491 5489 5488 5486 5484 5483 5481 5480 5478 5477 5476 5475 5473 5473 5472 5471 5471 5471 5470 5469 5469 5469 5469 5469 5468 5468 5468 5468 5467 5467 5467 5466 5466 5466
5492 5489 5487 5485 5484 5483 5481 5480 5478 5477 5475 5474 5473 5473 5472 5470 5470 5469 5469 5469 5469 5468 5468 5467 5467 5467 5467 5467 5467 5467 5467 5466 5466 5466 5465 5465 5464 5463
5482 5481 5479 5478 5477 5476 5475 5473 5472 5471 5470 5469 5468 5468 5467 5467 5466 5466 5466 5466 5466 5466 5466 5466 5465 5466 5466 5466 5466 5466 5466 5466 5465 5465 5464 5463 5462 5461
5474 5473 5471 5470 5470 5469 5468 5467 5466 5466 5465 5464 5464 5464 5463 5463 5463 5463 5463 5464 5464 5464 5464 5464 5465 5465 5466 5466 5465 5465 5465 5465 5464 5463 5463 5462 5461 5460
5466 5465 5464 5463 5462 5461 5461 5461 5460 5460 5460 5460 5460 5460 5460 5460 5461 5461 5461 5462 5462 5463 5463 5463 5464 5465 5465 5465 5465 5464 5464 5464 5463 5463 5462 5461 5461 5460
5458 5457 5456 5455 5455 5455 5454 5454 5454 5455 5455 5456 5456 5456 5457 5457 5458 5459 5460 5460 5461 5462 5462 5463 5463 5464 5464 5464 5464 5464 5463 5463 5463 5463 5462 5461 5460 5459
5450 5450 5449 5448 5448 5448 5448 5449 5449 5450 5451 5452 5453 5453 5454 5455 5456 5457 5458 5459 5461 5462 5462 5462 5462 5463 5463 5464 5464 5464 5463 5463 5463 5462 5462 5461 5460 5460
5443 5443 5442 5442 5443 5443 5444 5444 5445 5446 5447 5449 5450 5451 5452 5454 5455 5456 5458 5459 5460 5461 5462 5462 5462 5463 5463 5464 5464 5464 5464 5463 5463 5462 5461 5461 5460 5460
5436 5436 5436 5437 5438 5439 5440 5441 5442 5443 5445 5446 5448 5449 5451 5452 5454 5456 5457 5459 5460 5461 5461 5462 5462 5463 5463 5464 5464 5464 5464 5464 5463 5463 5463 5461 5461 5460